View from above orbital plane
|
View from above satellite
|
Ground track
|
The orbit data is extracted from the following two-line orbital elements,
1 39026U 12072A 21015.03552425 .00001506 00000-0 54397-4 0 9991
2 39026 97.2350 11.8118 0035439 208.7131 151.2160 15.29449325449630
Epoch (UTC): | 15 January 2021 00:51:09 |
Eccentricity: | 0.0035439 |
inclination: | 97.2350° |
perigee height: | 453 km |
apogee height: | 502 km |
right ascension of ascending node: | 11.8118° |
argument of perigee: | 208.7131° |
revolutions per day: | 15.29449325 |
mean anomaly at epoch: | 151.2160° |
orbit number at epoch: | 44963 |
The dashed part of the orbit path shows where the satellite is in the earth's shadow,
|
|